RH
10 10 9 10 10 11 12 13 15 15 16 17 19 18 18 17 17 17 17 18 18 18 18 18 18 18 20 19 16 15 15 18 20 20 25 29 23 19 20 19 15 14 12 12 15 15 12 10 9 9 9 10 13 15 17 14 16 24 28 27 27 24 20 19 17 20 22 24 34 31 30 32 31 37 35 34 39 41 42 41 35 26 24 22 22 26 29 34
10 10 10 12 12 13 14 14 15 15 17 18 18 18 17 17 17 18 19 19 18 18 17 18 19 17 18 17 17 15 15 18 18 25 31 24 17 18 19 17 15 13 11 13 16 14 11 10 10 9 9 11 14 15 19 16 16 24 26 26 29 27 24 21 18 22 22 24 35 31 27 27 27 32 31 32 37 39 43 43 41 36 29 23 21 26 29 32
10 11 12 14 14 15 15 15 16 17 18 18 18 17 17 17 19 20 21 20 19 19 18 21 21 18 18 17 17 14 17 21 15 21 26 18 15 17 17 17 15 12 12 13 16 15 12 11 11 10 10 12 13 14 18 20 22 22 23 28 28 24 21 20 21 24 24 25 29 28 27 26 25 27 28 33 34 35 41 40 41 42 36 28 24 26 30 30
12 13 14 15 16 16 15 16 17 18 18 17 17 16 17 18 20 22 21 20 20 21 21 22 21 19 17 16 16 14 20 25 17 18 20 15 14 15 17 17 14 13 12 15 17 15 12 12 11 10 14 18 15 13 16 20 24 23 24 27 21 18 20 22 23 24 26 26 23 24 28 28 25 26 27 33 37 35 34 35 37 38 34 30 27 26 29 31
14 15 16 16 16 16 16 17 18 18 18 17 17 17 19 20 21 21 21 21 21 22 23 22 21 18 16 16 13 15 25 29 22 19 18 15 14 14 17 16 15 14 11 14 17 13 11 11 10 12 18 20 18 18 18 16 21 26 25 24 20 20 22 22 24 26 27 25 22 25 29 28 25 28 28 32 38 35 29 32 35 35 33 29 27 25 28 33
16 16 16 16 16 17 17 18 18 17 17 16 17 18 20 20 21 21 20 20 20 21 21 21 21 18 17 15 14 20 27 29 23 20 19 16 15 15 17 16 15 14 11 14 17 13 10 9 10 16 19 19 20 22 20 16 21 30 25 20 22 24 24 24 26 29 28 23 23 27 27 24 27 31 31 32 35 32 30 34 35 35 35 32 30 28 28 34
16 15 15 16 16 17 17 18 18 17 16 16 18 19 20 21 22 22 21 19 19 20 20 19 19 19 18 18 25 28 22 21 21 21 22 17 15 16 16 17 14 13 15 18 17 11 9 10 10 15 19 24 25 24 26 22 24 33 29 22 23 24 25 27 29 29 28 25 23 26 26 25 31 34 31 32 32 31 32 34 34 34 33 35 39 38 37 38
15 15 15 16 16 17 18 17 16 15 16 17 18 19 20 22 21 21 21 19 18 18 19 18 17 18 18 20 32 29 18 20 22 22 22 19 18 17 17 18 15 14 16 16 14 11 11 13 13 15 24 31 30 31 34 32 33 37 33 24 22 24 26 27 29 28 27 26 24 26 28 27 28 28 27 27 25 25 26 28 31 33 34 38 43 42 42 41
14 15 15 16 17 17 17 16 16 16 17 18 19 19 20 20 20 20 20 18 18 17 17 18 16 16 15 21 31 26 20 22 22 22 22 21 20 19 19 18 16 15 14 13 11 12 11 13 15 15 25 32 31 35 39 41 44 39 32 26 23 25 26 27 26 26 26 25 24 26 27 25 22 22 24 23 21 21 21 23 26 29 32 34 39 41 41 38
14 16 16 17 17 16 16 16 16 16 18 18 18 19 19 19 19 20 21 18 17 17 17 17 17 17 18 27 32 25 22 22 21 22 22 21 20 20 20 18 17 15 13 12 14 15 12 14 15 14 25 31 33 41 41 43 44 35 34 31 28 27 25 26 26 24 26 24 25 28 28 25 21 25 30 23 19 20 20 21 21 23 25 25 30 37 39 38
16 16 16 16 16 16 17 16 16 17 18 18 18 18 18 18 19 21 22 20 18 17 17 17 20 24 24 25 25 22 21 22 22 22 22 21 18 20 20 19 18 16 14 14 17 19 18 19 18 22 31 30 34 43 41 43 40 32 35 37 33 27 24 25 26 25 26 25 26 27 29 28 25 29 31 25 20 19 20 20 19 20 21 20 21 26 32 36
16 16 16 16 16 16 17 17 16 17 17 17 18 17 17 19 20 20 21 20 20 19 19 19 20 24 26 22 20 22 21 21 22 21 22 21 18 18 19 19 19 17 15 15 19 21 20 20 22 32 36 30 36 41 41 43 37 31 36 41 38 31 29 26 23 25 25 26 26 28 34 32 30 31 27 22 22 21 20 20 20 20 19 20 20 20 24 27
15 15 16 15 15 16 16 16 16 17 17 17 17 17 18 19 19 20 20 19 18 18 19 19 19 23 28 27 22 21 20 21 22 20 21 21 18 17 18 18 18 19 18 19 22 22 22 21 24 36 37 35 42 40 41 39 33 36 36 35 37 36 36 26 21 26 26 28 26 29 38 30 23 25 22 21 21 22 22 21 20 21 20 20 21 21 21 22
15 15 15 13 14 16 17 16 16 17 16 17 16 16 18 19 19 19 18 18 17 19 21 22 24 26 28 27 22 19 20 21 20 20 20 21 19 17 17 18 17 18 19 21 23 23 24 22 24 36 37 35 40 39 39 35 32 38 35 32 35 36 37 26 22 28 29 30 26 32 44 33 21 20 18 19 19 20 22 21 20 21 21 20 21 21 21 21
15 15 14 13 14 16 17 16 16 17 16 17 16 17 20 19 19 19 19 18 18 19 22 26 28 28 28 25 19 19 21 19 20 21 20 22 22 19 18 18 18 18 17 19 20 20 22 23 25 31 34 37 44 44 36 31 31 33 34 37 34 32 36 29 23 26 27 28 27 38 48 37 25 19 16 18 18 19 21 21 21 21 19 19 19 19 20 20
15 16 14 13 14 16 16 16 16 16 16 16 17 18 19 18 18 18 18 18 18 20 24 27 25 26 29 25 19 19 20 19 20 20 20 22 22 21 20 18 17 17 17 17 19 20 18 24 31 34 37 39 42 43 35 33 34 30 33 38 32 29 33 32 29 28 27 30 34 41 45 37 26 19 16 18 19 20 21 22 21 20 19 17 17 18 18 19
16 16 14 14 15 16 16 15 16 15 15 16 17 18 18 19 19 18 19 19 17 18 22 24 22 24 27 22 19 19 18 19 20 19 19 21 21 21 20 17 16 15 16 16 17 21 17 24 37 37 35 31 29 34 40 46 43 37 39 39 33 30 33 35 38 37 33 39 42 40 42 39 29 23 20 20 20 21 22 22 20 19 19 17 17 18 18 18
16 15 14 15 17 17 17 16 15 15 16 16 17 18 18 19 19 20 24 22 19 19 21 24 25 32 33 21 18 19 17 19 20 19 18 19 20 21 21 18 17 15 17 18 17 19 20 27 36 33 30 31 37 44 49 52 51 51 51 50 45 39 37 32 37 45 42 46 48 42 45 40 31 28 24 22 21 21 22 21 21 20 18 18 17 17 17 17
15 13 14 18 19 18 17 16 17 17 17 18 19 19 18 21 23 21 24 25 30 35 33 32 33 36 33 21 17 18 17 19 20 18 18 20 20 20 21 18 18 19 22 27 23 23 30 36 36 37 43 45 48 51 50 49 51 53 51 54 56 50 43 29 36 52 47 49 53 46 47 40 31 28 23 21 20 21 22 19 19 20 19 19 17 17 17 18
14 11 14 18 18 17 17 17 18 17 17 19 22 25 26 31 31 23 25 30 35 39 37 36 32 27 23 18 17 18 17 19 18 17 18 21 22 21 20 18 21 25 29 38 38 33 37 44 45 47 50 46 42 44 47 47 49 53 54 56 54 51 45 28 39 57 47 49 51 40 40 34 27 25 20 20 19 20 22 20 20 18 19 20 19 20 19 20
12 9 14 17 16 17 18 17 17 16 20 22 23 32 35 38 38 29 32 36 31 31 33 31 26 20 19 17 18 20 20 19 16 15 18 21 22 23 25 24 26 29 31 40 45 38 36 45 50 45 39 38 40 44 48 51 52 54 57 57 50 47 42 33 47 55 44 50 50 36 36 33 28 27 23 22 22 21 20 20 21 17 17 20 21 22 20 19
9 8 14 16 15 18 17 18 17 14 26 30 26 31 31 32 35 28 30 33 28 29 30 28 24 18 19 17 19 22 21 21 21 15 17 22 19 25 36 32 27 30 30 36 42 39 42 52 51 39 35 41 46 48 51 54 57 58 55 54 52 45 39 41 53 50 43 55 51 38 41 39 33 32 29 27 23 21 20 20 23 22 21 21 21 23 23 21
8 9 14 16 17 18 17 18 16 14 26 33 28 27 24 20 20 20 30 32 27 31 28 28 28 20 19 17 18 23 22 26 29 19 18 24 23 30 40 34 31 32 29 38 45 40 44 52 47 42 43 46 48 49 51 53 56 58 54 50 49 46 45 48 49 45 45 52 48 45 52 49 43 38 29 26 24 21 22 23 24 28 28 26 27 29 29 26
8 9 14 19 17 17 19 18 17 19 26 28 23 21 19 17 14 18 33 33 28 32 27 26 27 21 20 18 18 25 25 26 26 19 19 26 28 34 38 38 40 36 31 43 48 44 48 46 42 49 50 45 47 47 49 53 50 48 52 51 47 47 50 48 45 45 42 45 53 54 49 42 36 31 21 22 27 23 23 25 24 26 28 29 31 32 32 30
7 8 13 18 16 18 19 16 18 21 23 24 19 16 16 18 16 16 29 32 27 31 32 30 27 19 18 18 19 29 33 30 24 19 22 28 31 38 42 41 41 40 44 49 45 44 49 44 44 54 49 42 50 50 45 50 48 43 50 55 48 45 51 49 48 52 45 44 56 54 46 38 26 21 20 22 25 22 24 27 24 22 25 31 32 29 28 27
6 6 12 16 16 18 17 19 26 22 23 32 25 16 17 20 17 17 31 37 26 28 35 32 28 24 23 20 22 34 40 34 23 19 24 28 34 42 45 40 37 41 50 52 44 43 47 46 49 53 46 44 52 51 44 46 48 46 49 54 50 47 55 55 52 58 52 42 44 45 48 48 34 23 23 24 21 18 21 21 17 17 21 28 27 24 23 24
7 6 10 15 15 17 21 29 33 22 25 40 32 16 17 21 17 20 36 38 27 29 31 26 24 25 28 25 23 31 34 28 25 25 25 27 34 42 44 41 39 40 48 49 39 42 51 49 48 49 46 48 49 46 44 43 43 47 53 56 53 52 56 55 56 61 57 48 44 42 45 53 51 36 26 26 22 18 22 19 17 19 20 23 23 22 23 24
9 7 8 13 14 16 24 28 31 32 33 34 26 17 18 19 16 27 40 33 23 24 25 27 25 20 26 30 26 29 29 28 31 29 25 27 32 39 43 42 40 38 48 48 32 38 54 50 47 49 45 46 46 42 44 43 41 50 60 60 55 56 56 54 60 63 56 55 56 48 47 57 57 36 23 27 25 24 29 25 22 25 23 23 24 24 24 24
10 8 7 10 12 15 21 20 25 37 34 22 19 20 19 18 22 35 37 25 21 24 24 28 25 20 29 35 30 32 33 32 32 27 29 33 30 35 45 47 43 41 49 51 39 42 54 50 50 51 44 45 47 42 44 46 47 55 62 61 59 62 61 58 62 60 54 59 61 51 48 54 52 31 19 27 27 28 33 28 27 29 26 26 27 29 28 26
11 10 8 8 12 14 17 18 19 24 23 20 21 20 18 23 33 36 29 24 30 34 31 29 29 29 35 37 33 32 34 35 33 31 35 38 31 31 44 49 46 44 46 50 49 53 57 53 53 56 52 50 48 44 47 50 51 57 59 56 55 57 62 62 57 53 54 59 56 49 43 44 48 33 20 25 28 30 34 32 32 31 28 30 30 33 34 31
12 11 9 12 20 19 21 28 23 16 19 21 20 21 26 35 38 30 23 29 38 38 33 31 35 38 39 41 36 33 38 37 35 36 36 35 32 29 33 40 43 41 36 36 44 56 62 54 50 58 56 51 50 49 53 59 59 60 58 53 49 46 48 52 49 47 54 55 48 43 40 42 48 37 24 26 30 34 39 36 34 32 28 29 30 32 35 36
12 12 12 18 23 17 22 31 21 16 21 19 22 32 35 34 34 30 27 32 38 37 34 35 38 40 43 44 35 35 43 36 31 40 42 37 39 43 41 40 45 43 29 27 34 40 51 55 55 60 55 48 48 46 51 60 58 53 49 50 54 48 43 46 46 43 44 43 39 37 37 40 40 32 25 26 27 32 36 33 32 31 27 27 30 32 37 40
13 14 13 17 16 11 18 22 17 21 20 19 31 39 34 28 28 32 29 28 33 36 38 43 43 42 46 39 29 35 44 36 31 40 46 41 40 50 50 44 48 45 32 32 32 28 40 54 53 53 55 53 46 39 41 47 46 44 44 50 57 54 56 59 49 42 42 39 35 35 37 40 38 29 24 23 23 28 34 33 31 28 26 29 33 36 37 36
17 14 13 15 14 15 20 19 21 23 17 24 40 38 33 30 28 34 33 27 33 39 40 43 44 44 42 32 29 37 37 34 36 38 38 34 32 42 46 42 46 47 40 37 31 27 36 42 40 41 46 49 48 45 45 46 48 46 40 45 51 50 60 65 53 48 52 46 39 37 38 40 40 32 24 22 23 27 32 31 26 23 23 27 32 33 31 27
17 14 14 17 18 21 23 22 22 18 20 36 42 34 34 31 27 35 40 37 38 41 42 45 48 43 34 31 37 40 35 32 36 35 32 31 33 39 42 43 46 49 48 40 30 30 32 30 36 44 43 40 45 51 50 48 48 42 35 42 50 48 50 56 54 49 53 56 52 47 42 35 31 25 20 23 21 19 24 23 19 20 21 24 29 28 26 25
19 17 18 18 21 21 19 21 19 16 30 43 39 34 36 35 34 39 47 49 46 47 48 45 44 36 26 29 34 35 37 36 34 31 29 34 41 42 43 47 50 48 45 40 35 35 34 30 30 40 47 45 46 51 52 50 46 40 41 47 49 47 46 54 58 46 46 60 54 40 39 36 31 27 22 24 19 14 18 19 17 20 20 22 27 26 25 26
21 19 20 18 19 19 18 20 17 19 34 40 38 38 36 40 47 47 52 54 48 51 48 35 32 33 27 26 28 31 37 35 31 27 25 32 42 43 45 49 49 43 39 41 41 35 38 40 30 31 46 53 52 53 54 55 52 42 44 51 50 49 46 48 56 51 51 60 45 32 42 45 42 40 30 24 21 16 17 17 16 19 20 21 24 24 25 27
20 22 25 19 15 18 17 15 16 27 36 35 39 44 40 46 53 51 55 58 54 53 44 31 31 32 27 26 27 32 36 32 29 27 25 30 37 41 43 44 44 40 39 48 48 38 41 48 39 30 39 52 57 54 51 55 57 51 49 51 50 54 55 48 50 55 60 63 49 41 48 45 41 41 35 25 21 18 15 15 17 19 20 22 23 26 28 28
26 32 33 20 15 20 20 18 24 35 38 36 43 47 45 51 54 52 56 59 60 54 38 32 34 30 28 31 29 31 34 33 31 30 28 30 37 46 45 41 44 42 41 50 52 44 42 46 44 36 33 42 46 42 40 46 54 57 56 51 46 50 54 48 46 52 60 65 60 55 52 44 35 32 28 23 18 16 16 16 19 21 22 24 26 28 29 30
33 38 35 18 13 19 20 23 29 35 41 42 46 46 47 53 54 54 60 63 60 49 34 33 37 34 33 33 31 32 32 29 29 29 28 28 35 49 53 51 55 55 51 54 56 50 42 40 43 39 31 32 36 36 33 33 40 48 48 46 46 44 44 47 48 49 56 62 62 62 57 42 28 23 21 20 17 16 17 18 21 23 24 25 27 29 29 31
32 38 36 17 12 18 23 29 31 34 42 43 46 52 56 58 55 54 63 70 63 48 40 39 40 41 39 35 34 35 32 31 30 27 27 28 28 41 64 73 73 72 61 51 52 51 43 40 44 44 38 32 34 38 36 30 33 38 37 37 40 42 46 56 58 50 51 55 54 60 63 45 26 21 20 18 16 15 16 19 22 24 24 26 28 28 29 33
33 35 31 16 11 17 27 38 39 39 44 47 54 61 61 59 53 47 54 63 61 53 46 42 43 46 45 44 43 39 36 35 30 26 29 33 35 49 75 86 83 81 65 43 45 50 43 43 50 51 44 37 38 42 41 40 41 42 43 39 36 41 43 50 60 56 51 53 50 61 71 51 26 20 20 17 16 16 16 19 24 25 24 27 29 27 29 33
36 31 24 17 13 15 29 42 43 44 49 53 56 56 57 55 48 45 51 55 53 49 47 43 46 51 49 46 46 43 42 38 30 31 31 33 49 70 81 85 82 76 63 48 49 54 46 43 51 50 37 34 40 41 40 47 52 48 42 36 39 50 49 45 52 56 58 59 54 62 70 49 23 19 20 17 17 17 16 19 24 26 25 28 30 28 30 33
35 30 24 20 17 24 41 47 42 46 50 51 51 50 56 59 50 48 55 55 50 46 45 44 46 52 50 47 46 43 42 36 29 35 32 27 56 85 83 83 82 71 68 69 66 65 54 42 48 53 42 33 35 33 33 42 47 38 31 37 48 59 64 58 51 55 66 63 52 60 67 44 23 22 21 18 19 18 17 20 23 27 27 29 31 29 31 35
35 30 26 22 19 30 47 46 39 43 47 50 49 43 48 55 55 57 55 52 53 50 46 45 46 49 48 48 50 43 39 34 28 35 34 29 60 90 85 82 86 78 80 87 85 80 64 44 44 52 49 43 41 37 34 34 36 32 32 42 49 54 62 57 49 60 72 62 50 58 61 40 24 25 23 20 21 20 20 23 24 27 29 31 32 31 32 36
37 34 31 28 25 32 43 45 41 41 41 44 43 40 43 45 51 63 62 54 56 55 49 46 46 45 44 47 49 41 37 39 36 40 41 36 50 74 82 83 84 83 86 94 95 81 62 52 49 47 49 49 44 38 33 33 38 40 41 45 49 58 63 53 53 66 67 60 56 52 49 44 35 28 25 23 23 23 23 26 27 28 30 32 32 31 32 34
36 38 37 34 34 37 38 40 47 48 42 41 39 39 42 38 39 55 61 54 55 58 51 45 46 46 45 50 50 42 40 42 39 38 43 45 44 55 78 86 80 84 91 94 94 76 59 62 58 49 52 51 44 39 35 37 40 40 44 47 47 62 70 61 61 63 54 59 61 42 37 47 40 28 28 26 24 25 26 28 29 30 31 32 31 30 31 32
31 35 37 36 40 43 37 39 49 50 44 43 42 41 42 41 42 46 48 48 51 54 49 44 49 51 49 52 51 46 45 42 40 40 41 48 49 50 68 78 77 89 88 75 75 66 59 68 63 53 55 50 46 43 37 40 44 40 46 49 44 55 69 67 63 55 50 60 56 37 37 45 38 30 30 27 26 29 29 29 30 31 32 32 31 31 31 31
29 31 33 36 40 39 35 42 52 48 41 40 43 45 46 47 50 47 45 47 46 46 45 44 51 57 54 53 52 51 49 43 46 52 46 48 55 54 58 61 68 84 75 57 60 57 55 66 63 57 60 52 47 50 47 50 53 46 46 47 42 46 55 60 61 56 57 60 51 43 48 48 38 34 32 28 28 29 29 30 31 32 33 33 33 32 32 34
35 33 32 36 40 36 33 39 46 42 35 35 39 44 45 48 53 51 50 52 47 45 49 49 55 61 55 51 52 55 55 50 51 57 55 56 60 54 48 46 52 64 58 50 57 53 50 59 53 49 59 53 44 49 51 50 51 46 43 43 43 45 47 51 53 54 59 61 54 53 59 53 39 32 30 29 29 30 31 32 33 33 33 34 34 35 36 38
28 27 27 32 34 32 31 31 34 35 34 39 45 45 46 53 57 53 53 58 56 54 56 56 60 63 57 50 50 54 57 55 53 55 60 65 64 54 50 48 52 61 59 55 58 53 52 60 55 52 61 53 39 41 43 44 49 52 52 51 49 48 47 45 45 49 54 54 54 57 57 48 34 26 28 29 30 33 34 33 35 36 36 37 38 38 40 41
22 22 24 32 32 28 31 31 32 34 36 43 50 48 49 53 54 52 52 57 63 64 62 61 63 62 52 44 47 52 56 59 62 64 67 72 70 63 62 60 58 64 66 62 62 59 58 64 62 61 67 55 37 39 46 48 50 46 42 43 42 41 44 44 42 47 47 46 52 55 45 32 25 26 32 34 34 34 34 35 38 39 39 40 40 40 41 41
Wind_Speed
2 2 1 1 1 2 3 3 3 2 1 1 3 4 6 8 9 10 10 11 12 13 14 14 12 9 8 5 6 7 7 9 4 11 10 9 20 21 15 13 12 11 9 9 8 9 10 8 7 4 6 5 2 1 1 0 1 2 2 3 4 2 1 2 1 3 2 6 8 8 9 8 7 6 4 1 3 6 5 6 6 7 9 11 7 7 13 17
1 1 1 1 2 3 3 3 2 1 1 2 4 6 7 9 10 10 10 10 10 11 12 12 10 7 8 7 8 9 8 11 4 12 9 16 22 17 12 11 9 9 8 7 7 9 9 8 8 5 5 3 2 1 2 1 1 1 2 3 2 3 3 4 5 5 2 5 9 7 9 8 7 8 6 4 6 7 8 8 7 9 10 12 10 10 14 17
1 2 2 3 3 3 3 2 1 0 1 3 5 7 8 9 8 8 8 6 8 11 12 11 7 2 4 8 8 8 7 11 5 8 12 20 19 13 11 9 7 7 7 6 8 10 10 9 10 8 5 3 1 1 2 1 1 0 1 2 2 2 2 6 7 5 5 3 8 7 7 8 5 6 6 5 7 8 11 9 8 11 11 11 11 13 17 17
3 3 3 3 3 2 2 1 1 1 3 5 7 8 8 7 6 7 5 3 8 13 15 14 8 3 6 7 7 6 5 7 3 8 16 20 17 12 9 8 6 5 5 5 7 10 10 9 10 6 4 3 1 0 1 2 1 1 1 2 3 1 1 5 6 5 5 4 4 7 6 7 4 3 4 5 6 8 10 10 10 12 12 11 11 13 17 17
3 3 3 2 2 2 2 1 0 2 4 6 7 7 6 6 6 6 3 2 5 10 12 14 11 7 6 5 5 4 4 2 3 12 19 21 16 10 8 8 6 4 4 6 8 9 9 8 8 4 2 2 1 1 1 2 1 1 1 2 4 4 2 3 5 5 5 5 1 6 6 6 3 3 5 6 8 8 6 7 10 10 9 10 10 12 14 15
3 3 2 2 2 2 1 0 2 4 6 7 6 5 5 6 7 6 2 2 3 6 9 11 10 8 5 2 3 4 3 1 6 15 20 21 15 8 6 7 6 4 5 7 9 9 7 7 6 3 2 1 3 2 2 3 1 0 0 1 4 5 3 3 4 4 4 4 1 3 3 4 4 5 5 9 12 9 5 3 3 3 4 7 8 8 9 11
3 2 2 2 2 1 0 2 3 5 6 5 3 3 4 5 7 7 2 3 2 4 6 8 7 6 3 1 3 4 0 4 10 16 19 20 15 8 5 5 6 4 5 8 10 8 5 7 5 2 2 1 2 2 4 4 2 1 1 2 3 4 4 4 3 3 4 4 2 3 1 3 6 6 5 11 13 11 11 9 7 5 5 6 6 6 6 6
2 3 3 2 1 0 2 3 5 6 4 2 2 3 3 5 8 9 4 4 4 4 5 7 6 3 3 3 4 2 3 6 13 16 17 20 17 10 6 5 6 5 5 6 8 7 5 6 4 2 1 1 2 2 4 5 3 3 2 2 1 2 3 3 2 2 2 3 3 4 3 5 7 6 9 14 13 11 12 12 11 10 8 7 7 8 7 7
3 3 2 2 0 2 4 5 5 3 1 0 1 2 2 5 7 9 7 6 7 5 4 6 6 5 7 5 4 1 3 7 12 14 16 18 18 13 8 6 6 6 6 4 5 6 5 3 3 3 2 2 2 2 4 3 2 3 2 1 1 2 2 1 0 1 1 2 1 4 6 7 8 7 12 16 13 13 12 11 11 10 10 10 9 10 9 10
4 3 2 1 2 4 5 4 2 1 1 1 1 2 4 6 6 7 8 3 6 6 5 6 5 5 7 6 4 1 4 8 10 13 14 16 16 13 11 8 6 7 5 3 5 7 5 4 4 3 3 3 2 2 4 2 0 1 1 1 2 1 1 1 3 2 2 3 2 5 7 8 7 4 9 12 10 11 11 12 12 11 12 11 10 10 10 11
4 3 1 2 3 3 2 1 1 3 2 2 2 4 6 7 6 4 6 5 3 1 0 1 2 6 6 3 0 2 5 8 9 12 13 13 14 13 12 10 8 7 4 3 6 8 8 7 6 3 1 1 2 2 3 1 2 2 2 1 2 3 3 3 4 3 3 3 3 4 9 10 8 6 13 15 9 6 7 10 10 10 11 10 11 10 9 10
3 2 2 2 1 1 0 1 3 3 3 3 3 5 7 7 3 4 6 8 8 6 4 1 3 9 8 5 5 3 5 8 8 11 12 12 12 12 12 10 10 9 6 4 5 8 7 6 5 3 1 1 1 1 1 2 3 2 3 3 3 5 4 6 6 4 4 1 3 3 9 9 8 11 19 19 11 7 7 8 8 8 8 8 9 9 7 9
3 3 2 1 0 0 1 3 3 4 4 3 4 6 6 4 4 3 3 4 4 3 2 2 3 6 5 4 3 2 5 7 7 9 12 13 10 10 13 13 11 11 9 8 6 7 7 5 3 5 3 1 1 1 2 3 2 2 3 3 2 4 3 7 6 4 4 1 3 1 5 6 5 11 18 15 9 8 10 9 8 7 7 8 8 8 8 9
4 3 2 0 0 1 2 3 4 4 4 4 5 7 5 2 2 4 4 3 2 2 4 3 1 2 2 3 1 3 7 8 8 9 12 15 12 8 11 11 11 11 9 9 7 6 7 5 7 6 2 2 3 1 2 2 2 2 1 1 2 3 1 6 6 5 4 2 3 3 3 8 9 9 9 9 8 8 9 9 8 8 7 8 8 8 9 8
5 2 0 1 0 2 3 4 4 4 4 4 5 5 4 1 3 4 4 5 4 5 6 5 3 3 1 3 0 2 7 8 8 11 12 14 13 9 9 9 7 6 6 6 4 3 4 2 3 3 2 2 2 1 2 3 3 2 1 3 2 2 2 5 6 6 4 1 4 4 3 8 10 8 2 3 7 8 8 8 8 9 9 9 8 8 8 8
4 0 2 1 1 3 4 4 4 4 3 2 2 2 3 4 4 3 3 3 3 5 7 6 7 7 1 3 1 2 6 7 7 11 11 10 10 10 12 12 6 2 1 1 1 0 2 2 1 1 1 1 2 1 3 2 2 1 1 4 4 3 3 1 3 4 3 0 4 5 5 7 8 7 3 2 5 7 8 9 10 11 10 10 8 7 7 7
2 1 2 0 3 4 4 4 4 3 2 1 1 2 2 3 4 4 3 2 1 3 6 7 10 7 2 2 3 4 6 7 8 10 9 8 10 10 11 10 5 4 4 5 6 4 2 1 1 1 2 1 1 2 4 2 2 1 1 3 5 5 5 3 2 2 2 2 4 6 7 12 14 12 11 10 9 10 11 11 12 11 10 10 8 8 8 7
2 3 2 1 3 3 4 4 3 2 0 1 2 1 2 4 7 8 7 4 5 4 2 7 9 2 2 3 2 4 8 8 8 8 9 9 10 9 9 8 6 7 6 5 5 3 1 1 2 2 1 2 4 4 3 2 3 4 4 4 5 6 6 6 3 1 2 4 6 6 8 17 19 14 15 15 13 13 14 13 12 11 11 10 9 9 8 8
3 3 2 2 3 4 5 4 5 6 5 5 3 2 4 6 8 11 15 10 2 2 0 4 5 2 1 5 3 6 8 9 7 6 8 11 9 8 10 10 8 7 4 2 1 1 2 1 1 1 3 4 5 4 2 3 4 5 6 4 6 6 6 8 4 1 1 2 7 8 9 17 19 15 15 13 11 12 14 13 11 10 10 10 9 8 8 8
3 2 2 3 3 5 6 7 10 10 7 5 2 1 2 3 3 5 12 11 5 2 2 2 3 3 1 4 6 9 8 8 4 5 10 13 10 8 7 7 6 2 2 1 1 1 1 1 3 2 3 4 4 4 3 4 4 5 5 5 7 6 7 9 3 2 1 0 7 8 10 16 18 17 16 13 10 11 13 12 10 9 9 8 8 8 8 8
2 1 3 3 3 6 8 11 12 8 6 3 1 2 2 1 1 1 2 4 4 2 1 2 2 3 1 3 6 9 5 5 3 7 16 15 6 4 3 2 2 1 1 1 2 0 1 1 3 2 2 3 3 2 3 4 4 5 5 5 6 6 7 6 1 2 2 1 6 9 11 16 17 18 18 14 11 11 12 10 10 10 8 7 7 9 9 7
1 1 3 3 4 7 9 12 12 5 9 5 1 1 2 3 4 3 1 2 3 1 1 2 2 2 2 1 5 8 3 2 2 8 20 19 4 1 4 4 3 2 1 1 2 2 1 1 1 2 2 2 2 2 3 4 4 4 4 4 6 5 5 4 2 2 2 1 7 10 10 14 16 19 19 15 10 9 8 6 6 6 6 5 4 6 6 5
2 2 4 5 6 9 10 13 12 1 8 5 3 5 5 5 5 3 3 1 2 2 2 3 3 4 3 2 7 10 3 2 3 7 18 17 5 2 4 3 4 3 2 4 4 4 2 1 1 2 3 3 3 3 3 5 4 4 5 5 5 4 5 3 0 2 3 4 9 11 9 11 14 14 13 10 6 2 2 3 4 4 5 5 6 7 6 5
3 4 5 6 8 9 10 12 11 2 6 5 6 7 6 5 6 6 3 1 1 1 0 2 2 4 4 2 7 8 3 3 3 7 14 12 4 3 2 2 4 3 3 5 5 3 1 2 2 1 3 3 3 4 4 3 4 4 3 2 4 5 5 6 6 8 8 6 6 7 8 7 5 7 8 4 2 2 2 3 5 5 2 3 5 7 7 6
5 6 6 8 8 8 9 9 8 4 2 5 6 5 5 5 7 9 3 2 1 1 1 0 1 2 4 3 5 4 1 2 2 5 9 7 4 3 1 0 1 3 4 5 4 2 1 2 1 2 3 2 3 5 2 2 4 5 1 1 2 4 6 8 9 9 7 4 1 2 6 5 2 7 8 3 5 3 2 3 6 4 3 3 5 6 7 7
7 8 9 9 8 8 8 5 5 6 3 1 3 4 2 2 7 10 3 2 1 1 2 1 1 4 6 4 4 1 1 1 0 3 5 4 2 1 0 1 1 1 3 2 2 1 1 2 2 2 3 3 4 4 1 3 3 5 2 2 2 4 7 9 7 5 3 5 3 1 2 5 5 7 5 4 7 7 7 7 8 8 8 7 8 9 10 10
9 10 11 11 9 9 5 1 4 5 3 3 5 7 5 1 6 8 2 1 1 1 2 2 1 4 6 6 7 1 1 3 2 2 3 3 2 2 1 3 0 1 1 1 2 1 1 2 3 2 2 4 4 2 2 3 2 3 2 1 5 7 9 9 5 3 4 6 8 5 5 3 6 6 4 4 6 7 8 9 9 9 10 10 10 10 9 8
10 11 14 13 11 9 3 3 2 3 2 4 5 7 7 2 6 5 1 1 2 2 1 2 2 3 4 7 7 3 3 4 3 1 1 2 3 1 1 2 1 3 1 2 3 2 1 1 1 1 2 3 2 1 3 3 1 2 2 3 7 9 9 6 3 4 4 5 7 2 4 1 5 5 4 4 6 8 9 9 10 9 9 10 9 9 9 8
10 12 13 13 13 11 2 3 2 3 5 6 4 6 6 3 4 2 1 1 2 1 0 2 2 4 6 5 2 3 0 1 2 3 3 2 1 0 1 1 1 3 2 1 2 2 1 2 2 1 1 2 3 1 0 1 3 3 5 7 9 9 7 3 2 4 4 3 4 3 4 0 4 5 5 5 6 7 7 7 8 8 8 7 7 7 7 7
10 12 13 12 12 10 4 3 4 3 4 3 3 6 3 3 2 1 1 1 2 2 1 2 2 4 7 4 2 5 3 1 2 4 3 1 1 2 1 0 1 2 2 2 2 1 2 2 1 1 2 2 3 4 3 3 3 6 7 7 7 6 2 3 2 2 2 2 3 6 5 3 4 5 4 5 3 2 5 7 6 8 8 6 6 6 6 7
11 13 14 12 11 8 4 2 2 2 1 3 6 4 1 1 1 2 1 1 2 3 2 2 3 3 6 4 1 6 5 2 4 4 3 3 4 7 5 2 2 2 2 3 2 0 2 1 1 1 2 1 3 4 0 1 1 3 4 4 6 5 2 2 0 1 2 3 3 5 5 3 3 4 5 6 4 4 7 6 5 5 5 5 6 6 6 6
13 14 14 10 8 7 3 1 1 2 4 5 4 2 1 1 3 2 1 1 1 3 2 1 3 4 5 2 2 6 4 3 4 4 3 3 4 6 6 5 4 3 4 5 4 3 2 1 1 1 1 1 2 4 2 1 1 2 4 4 5 5 3 3 2 2 3 2 3 3 5 3 4 6 7 4 6 6 5 4 2 1 2 4 6 5 6 6
13 13 12 8 6 5 3 3 4 4 5 4 0 2 1 2 3 1 2 3 1 1 1 2 4 6 6 3 4 5 1 1 4 2 0 1 3 3 5 7 6 3 2 4 5 5 3 2 1 1 1 1 3 4 3 2 3 5 5 4 4 3 4 5 4 4 4 4 5 3 3 4 5 6 3 4 6 4 6 6 4 1 3 6 7 6 6 6
11 8 10 10 7 7 6 5 5 5 3 1 2 1 3 4 2 0 2 2 1 2 1 1 5 6 2 2 2 4 1 1 4 3 3 2 4 3 3 7 9 4 3 3 3 3 3 3 2 2 1 2 2 2 0 3 4 4 2 2 2 2 2 3 3 4 5 7 8 3 2 3 5 6 2 7 6 5 6 4 2 5 6 6 6 6 7 8
14 12 14 15 12 10 8 6 5 3 1 3 1 3 5 4 1 1 2 2 2 3 4 3 4 4 1 2 0 2 2 1 3 4 4 4 4 3 3 5 8 5 3 3 2 2 3 2 2 2 1 1 2 1 1 2 2 3 1 2 1 2 3 3 4 5 5 6 6 2 1 5 5 8 4 3 4 4 2 4 8 8 7 6 6 7 7 8
17 16 16 16 13 9 6 4 3 1 2 2 3 5 3 2 1 2 2 2 1 4 7 5 3 3 3 2 2 4 1 1 3 3 2 3 3 3 3 2 5 5 4 3 3 3 2 4 7 4 3 3 2 1 1 2 1 2 2 2 2 4 6 1 5 6 4 4 4 3 4 7 5 7 5 6 12 10 7 7 7 5 7 7 6 7 8 8
15 15 14 16 15 9 4 2 1 2 2 2 5 4 1 1 1 2 2 3 1 1 4 3 2 3 4 3 4 8 5 1 4 4 2 2 2 3 3 1 2 4 4 2 1 2 1 6 8 4 2 2 1 1 2 1 1 1 2 3 4 1 4 1 2 4 3 4 4 4 8 9 5 4 5 9 12 10 8 8 6 5 7 7 7 9 10 10
8 10 11 17 17 9 4 2 3 4 1 5 7 3 1 1 1 2 2 3 1 1 2 3 1 1 3 4 3 6 7 4 6 6 3 2 2 2 2 2 2 2 3 3 1 2 2 4 4 1 1 1 0 2 2 3 2 1 2 4 2 1 1 2 2 2 3 4 4 6 9 9 5 4 4 9 11 10 10 10 7 7 7 7 9 10 11 11
1 3 5 15 15 9 8 6 5 3 2 5 5 2 2 2 1 2 2 2 1 1 2 2 1 1 2 3 2 3 4 3 5 5 3 3 3 3 2 2 2 2 3 3 1 2 2 2 2 2 3 2 1 1 2 3 3 1 2 3 1 1 3 3 1 1 2 3 4 6 8 8 6 4 5 11 12 8 10 10 7 7 7 8 9 10 10 10
1 2 3 13 10 8 12 10 6 5 5 5 3 2 2 2 1 1 1 1 1 0 2 2 3 3 2 1 0 1 2 2 3 3 3 3 2 3 4 3 3 5 5 2 1 3 2 1 4 5 7 6 1 0 1 2 3 1 2 1 1 1 1 2 1 1 1 2 3 5 7 9 8 5 7 12 11 8 9 8 6 5 7 9 9 10 10 8
2 2 4 13 9 5 9 10 7 5 4 4 3 3 2 0 1 1 2 1 1 1 1 1 2 3 3 2 1 1 3 3 3 2 2 3 3 2 3 3 3 5 5 2 1 2 3 2 4 5 6 6 3 3 3 4 3 2 2 2 1 0 1 3 4 1 1 1 2 3 6 11 10 5 6 9 7 9 10 7 5 6 8 9 9 10 9 7
3 3 4 13 9 4 7 7 4 5 4 3 2 2 1 0 1 1 1 1 1 1 1 1 1 2 2 2 2 3 3 3 3 3 2 3 4 2 2 3 4 3 2 2 1 1 1 1 3 5 5 6 5 5 5 5 2 2 3 1 1 1 2 1 3 4 3 2 2 2 5 10 8 3 5 7 7 9 10 6 5 6 8 9 9 10 9 7
3 3 6 16 9 2 5 7 3 5 4 1 1 1 1 1 1 1 1 2 1 2 2 1 1 2 2 2 2 3 3 2 2 3 2 2 2 1 2 4 4 2 1 1 1 1 1 1 2 5 5 4 5 5 5 3 2 2 3 2 2 1 2 3 3 2 3 3 2 1 5 8 6 3 4 8 9 10 10 7 5 6 8 9 9 10 9 7
3 3 5 16 12 4 5 4 3 3 2 2 2 1 1 1 3 2 2 4 3 2 2 1 1 2 2 1 1 3 4 3 2 2 1 2 1 1 2 4 4 3 2 1 1 2 1 0 2 4 5 5 5 6 5 3 2 3 4 1 3 2 3 2 1 1 1 5 5 3 5 9 7 6 8 10 12 13 11 7 4 5 7 8 8 9 8 7
3 3 2 13 18 12 4 1 4 5 3 3 3 3 1 2 2 1 1 2 1 1 1 1 0 1 2 0 1 3 1 1 1 1 1 2 1 1 1 2 2 2 3 0 2 2 1 2 2 1 2 5 5 5 5 5 5 6 6 3 1 3 4 2 1 1 2 5 4 4 7 11 13 12 12 13 13 15 13 8 5 6 7 7 7 8 9 7
2 3 2 6 12 10 4 2 4 4 3 3 3 3 4 3 1 2 1 1 1 1 1 1 0 0 2 3 2 2 2 1 1 1 2 3 2 1 1 1 1 0 1 2 2 1 1 3 3 5 6 5 5 8 8 7 7 10 13 12 6 4 7 4 2 3 5 3 5 8 10 11 15 15 14 13 15 15 12 7 7 8 9 8 8 9 11 9
2 2 1 1 3 4 4 5 5 3 2 1 2 2 3 3 1 1 1 0 1 1 1 1 2 3 3 5 3 2 6 4 1 2 2 3 2 1 2 1 1 2 1 1 2 1 1 4 4 6 8 9 8 12 13 10 9 13 15 16 12 5 7 7 6 8 5 1 6 12 10 10 14 16 15 16 16 14 10 7 8 9 10 10 9 11 14 12
3 3 1 0 1 2 3 3 4 5 5 3 3 1 3 4 3 2 1 1 1 1 0 1 4 6 4 3 2 2 7 6 2 2 2 2 3 3 2 2 1 4 3 2 2 2 1 4 3 2 7 12 10 13 16 11 10 13 14 15 15 9 7 10 12 13 7 4 10 15 13 14 16 16 17 17 15 11 8 8 9 10 11 11 12 15 17 13
3 4 1 2 3 2 1 2 3 5 7 5 3 2 3 4 3 1 0 1 1 2 3 3 4 7 5 3 2 2 4 4 2 3 1 1 5 4 2 2 1 4 3 2 2 1 1 2 2 1 7 12 11 13 14 10 9 14 16 14 13 13 11 12 14 14 11 12 16 17 16 18 18 16 17 16 11 7 7 9 10 10 11 12 16 19 16 11
2 4 1 3 4 2 0 1 2 4 5 4 3 1 2 3 3 1 1 2 3 3 5 4 5 8 4 2 1 0 1 1 3 5 3 1 3 2 1 1 1 2 2 2 1 0 2 1 4 2 7 12 10 8 8 8 10 15 18 16 12 13 12 11 11 10 9 12 16 15 14 16 14 13 14 12 7 7 9 11 11 10 12 16 19 17 13 12
5 5 4 5 4 3 2 1 2 3 4 4 2 0 1 3 3 1 2 4 4 3 4 4 6 7 3 2 1 2 4 4 7 9 6 3 3 2 1 1 1 3 4 1 1 0 2 2 5 5 6 10 7 6 10 11 12 14 15 13 11 10 9 8 8 7 7 9 12 11 10 11 12 12 12 9 8 10 13 13 11 11 14 17 16 15 14 14
7 5 4 5 4 3 3 2 3 3 2 2 2 1 1 2 2 1 2 3 3 3 2 2 4 4 2 3 3 2 2 3 6 6 4 4 5 4 4 4 2 2 2 1 1 1 1 1 4 4 4 8 9 11 14 13 10 8 7 7 8 9 9 8 8 8 8 7 6 8 10 13 15 13 11 10 12 14 14 12 12 13 15 15 15 15 15 15
Wind_Direction
264 262 267 233 150 144 148 155 167 186 240 304 322 328 330 329 328 324 325 323 318 315 309 304 298 272 252 265 277 262 285 303 343 59 60 9 342 337 332 322 325 329 325 323 321 314 303 286 276 265 273 266 189 126 200 148 5 261 250 241 264 281 98 343 358 88 129 136 140 169 168 184 178 170 181 142 239 239 258 247 236 235 224 241 235 136 137 149
259 241 149 131 128 136 145 154 171 191 270 318 329 330 331 328 327 329 327 326 331 330 323 316 306 277 245 226 242 258 284 297 336 67 38 350 345 337 330 326 326 328 326 320 320 318 305 306 320 316 285 259 129 126 192 96 339 248 278 276 309 9 43 359 28 62 2 134 149 176 175 193 186 169 170 189 223 215 240 246 231 245 236 232 222 165 158 164
134 128 122 123 126 131 143 155 168 187 317 330 333 330 329 329 334 336 331 347 15 14 7 352 336 283 199 191 221 252 290 298 321 52 4 346 345 334 332 329 327 329 327 326 323 316 308 310 309 305 295 278 103 184 228 48 335 247 292 306 23 42 57 28 37 51 0 81 151 172 175 204 193 162 168 191 229 217 223 231 217 232 235 232 222 182 173 179
121 124 123 122 126 129 146 147 148 334 335 332 331 331 330 334 343 341 340 45 41 34 29 21 27 89 145 165 210 241 287 297 343 8 347 346 343 333 332 329 328 326 331 340 319 300 294 294 286 289 301 286 89 187 298 41 341 354 345 336 20 333 32 47 36 36 1 8 164 161 169 213 202 172 194 190 229 233 226 224 218 227 229 226 225 204 188 187
122 120 120 119 121 125 129 126 10 336 331 330 331 334 336 337 337 329 320 87 35 31 30 30 43 70 113 152 202 226 283 282 25 351 345 349 345 334 330 332 329 309 320 337 315 293 278 277 274 276 273 273 9 347 352 34 0 0 353 349 3 340 358 69 43 27 350 338 177 155 178 216 198 210 229 218 227 233 230 215 213 226 231 228 225 217 200 191
118 113 114 113 113 118 118 45 329 329 326 329 334 339 346 343 341 333 282 212 22 22 18 22 37 58 98 162 232 249 276 65 12 347 345 349 349 338 332 337 335 307 303 314 303 284 270 273 266 267 273 301 4 6 13 19 71 318 335 41 7 356 17 52 46 21 341 319 208 153 201 224 222 236 234 235 239 243 260 230 193 215 254 268 257 236 218 198
116 111 112 112 111 117 45 319 324 323 325 332 342 356 3 13 17 18 338 238 287 341 359 7 22 50 84 4 309 276 37 46 355 344 345 354 358 349 346 350 349 345 313 306 297 289 290 285 273 302 317 327 358 15 1 348 39 30 36 64 13 20 41 39 41 19 343 312 334 30 311 243 237 247 242 241 243 243 254 261 267 280 281 287 283 264 254 226
122 115 114 114 115 144 309 314 318 320 330 341 9 14 18 27 18 16 357 263 269 294 332 352 359 0 311 317 310 282 70 10 340 342 347 358 5 2 6 3 355 349 316 301 298 305 313 301 304 327 327 69 346 19 3 342 25 39 50 62 21 53 58 56 54 25 324 302 349 347 283 255 248 260 263 253 250 242 241 247 254 261 255 245 249 253 251 246
126 122 124 125 169 299 306 311 319 323 345 45 22 7 345 353 358 3 347 273 257 270 290 330 341 317 290 282 277 281 38 347 338 344 349 358 4 10 14 2 344 319 301 307 315 307 304 326 3 10 75 70 354 2 1 349 20 27 45 48 80 88 60 56 261 157 251 278 6 294 268 260 258 266 267 255 250 250 243 241 241 241 243 235 229 235 236 238
130 130 140 167 282 301 309 316 335 192 175 190 275 322 321 330 340 355 353 273 232 260 280 309 330 317 282 258 258 308 10 346 349 348 350 360 3 12 16 6 341 311 304 2 8 341 339 11 22 32 75 81 47 8 353 6 205 16 71 50 63 103 174 192 262 184 217 264 220 269 274 269 267 259 265 255 235 240 238 238 238 234 238 236 228 225 225 232
139 149 193 262 288 302 320 5 136 179 197 230 281 313 320 326 333 359 23 72 146 228 247 259 340 339 312 276 293 66 10 348 353 353 353 2 10 16 14 12 1 338 327 39 35 8 10 17 10 16 36 103 68 43 21 357 247 184 148 153 156 216 227 195 235 200 204 251 190 264 279 269 263 238 251 254 241 235 228 231 233 230 234 235 235 230 220 226
162 197 233 255 279 302 31 129 167 189 213 250 291 317 330 345 24 93 63 69 88 91 99 143 350 343 340 42 56 30 354 347 350 357 357 359 15 26 21 23 23 14 16 65 45 13 20 3 357 40 19 295 165 90 99 256 260 188 226 261 189 210 232 204 210 191 192 208 139 278 287 260 228 221 241 249 244 235 231 233 231 233 237 234 237 237 231 229
191 198 182 180 273 174 137 153 182 200 229 271 300 322 343 17 81 93 45 56 83 73 40 338 340 331 334 49 44 350 4 9 4 3 3 3 16 37 33 32 36 37 48 69 53 25 35 18 51 80 14 12 119 103 148 220 242 214 244 281 249 257 241 194 192 175 181 185 113 14 299 273 238 231 241 244 230 221 231 236 231 233 239 237 236 234 235 234
171 160 139 150 317 148 149 166 189 215 248 284 307 330 353 39 51 24 19 36 70 59 28 20 13 316 6 65 32 28 28 18 17 7 359 2 6 20 31 30 35 44 54 67 65 53 55 70 101 100 5 37 92 129 164 188 218 241 278 325 255 288 265 168 173 170 171 180 135 115 266 272 287 278 250 226 211 210 223 231 229 231 234 235 233 231 234 230
159 147 45 330 142 151 155 171 196 229 251 292 315 339 11 62 13 8 30 46 71 61 16 6 357 310 90 93 15 11 11 1 10 2 348 352 353 350 358 353 1 31 50 62 62 50 46 73 115 103 45 56 111 164 211 200 210 232 327 319 257 240 243 176 175 183 184 194 157 147 261 269 275 288 315 174 204 212 222 231 230 233 235 234 231 226 231 231
164 127 344 319 159 153 158 178 205 224 241 308 349 45 66 70 39 27 32 38 76 34 2 351 340 329 50 91 352 346 2 358 356 348 339 340 339 333 331 321 301 307 353 341 262 271 58 63 13 28 144 223 204 254 288 244 232 213 215 297 296 283 294 215 184 207 213 179 177 193 258 279 267 272 287 199 211 219 225 232 232 236 237 236 237 230 231 235
189 321 337 213 148 149 164 181 195 207 243 292 112 94 61 45 41 36 2 326 287 13 32 12 340 333 71 55 349 355 353 347 337 337 341 333 324 325 325 318 304 286 271 247 230 218 192 133 17 291 217 231 325 332 335 331 318 347 322 308 305 315 330 311 265 261 213 178 222 223 240 263 265 269 272 256 242 240 238 237 235 238 238 236 233 231 233 231
257 321 325 162 147 151 161 161 164 166 88 167 178 153 86 73 60 46 18 331 271 273 56 16 349 2 84 12 347 347 346 336 325 335 346 331 315 313 307 300 298 291 272 237 221 219 253 193 199 245 206 35 21 23 13 340 325 328 325 328 320 324 320 290 278 248 204 198 239 245 249 266 269 269 268 260 251 250 248 242 237 235 236 237 230 229 231 226
291 316 286 162 141 144 146 137 123 111 97 98 107 103 114 109 87 54 35 35 354 283 71 348 347 138 72 10 341 317 322 313 317 344 345 337 326 307 286 270 270 281 283 260 239 33 347 291 228 326 7 14 20 38 21 325 322 308 309 306 292 298 293 285 281 177 231 241 250 250 256 272 280 279 274 269 257 252 255 252 247 239 233 234 235 236 230 223
296 297 214 150 122 133 135 130 122 109 88 80 63 13 130 132 113 45 28 40 56 52 80 324 352 106 86 6 346 335 316 283 297 30 0 339 318 303 289 257 250 279 356 331 325 34 1 358 46 39 359 357 12 23 339 311 299 292 304 294 280 281 278 285 290 150 109 278 259 261 268 275 283 286 283 282 275 261 259 260 262 258 244 232 233 244 236 226
294 252 196 161 124 137 139 139 134 103 49 39 304 285 293 329 61 107 11 56 76 48 67 300 317 104 68 340 346 351 336 249 247 32 9 349 305 283 318 286 266 344 43 242 246 305 30 31 44 39 9 358 347 337 305 292 285 287 290 284 283 274 273 298 5 173 129 100 271 277 280 280 286 289 288 288 282 268 263 261 264 268 264 241 227 243 241 227
277 205 186 160 141 150 151 153 151 94 28 30 80 56 56 71 98 111 225 112 85 340 302 305 310 85 61 357 353 338 322 257 315 20 5 355 0 39 332 335 1 358 338 308 280 319 28 95 60 10 3 325 269 247 261 275 275 279 273 269 281 284 297 323 92 152 127 127 282 289 290 288 287 285 285 282 269 259 264 268 278 293 299 287 268 270 265 246
258 192 168 153 151 157 161 168 174 115 10 19 78 93 103 94 81 41 335 111 96 308 342 18 14 31 17 35 4 338 344 26 331 4 358 350 8 12 332 352 348 323 359 14 355 338 358 107 65 4 327 301 278 244 260 283 272 255 254 258 276 337 357 316 302 335 284 246 275 294 298 286 282 282 282 278 260 246 325 339 333 328 321 326 334 324 326 331
232 189 167 156 155 162 173 180 190 235 11 51 92 104 113 86 40 10 335 193 86 279 75 23 25 33 9 353 350 339 28 51 333 347 354 354 351 310 345 29 334 334 30 11 335 308 35 69 37 319 259 284 322 296 291 315 307 280 262 263 291 341 339 284 299 314 294 268 269 302 308 279 277 314 309 313 36 66 48 356 318 297 288 353 339 313 321 344
222 194 179 165 156 162 173 178 199 234 24 81 114 121 101 67 33 19 355 215 52 110 157 1 170 28 351 313 344 346 29 43 13 343 348 4 351 310 21 45 310 10 6 348 330 289 126 88 355 274 255 285 319 299 330 41 320 307 303 103 298 311 298 285 307 323 316 303 209 43 331 288 4 345 314 346 31 30 51 8 338 347 76 60 2 340 354 9
217 195 184 178 166 161 162 169 210 230 256 347 193 191 142 52 23 15 354 210 43 350 338 42 172 353 356 341 345 51 141 330 350 325 337 10 350 252 3 313 171 28 326 328 358 270 153 130 217 272 293 304 287 277 32 74 339 305 233 205 285 290 287 289 312 334 312 296 276 158 272 278 327 330 311 23 35 38 34 7 356 24 58 54 36 31 28 26
210 197 187 186 176 161 155 177 210 208 235 267 243 222 209 312 1 0 347 153 37 310 339 18 308 344 0 335 324 76 150 303 292 300 324 1 348 215 241 6 40 256 286 6 11 316 198 166 206 254 288 292 288 278 7 46 342 289 244 311 318 295 285 292 312 291 266 298 294 245 190 250 304 303 314 17 51 51 28 7 5 25 48 50 45 42 33 21
205 195 188 188 182 170 135 37 166 198 259 278 259 224 212 267 341 341 49 100 331 289 337 354 314 341 348 321 331 78 170 286 315 313 293 338 348 253 258 15 315 281 321 37 1 341 312 139 196 300 308 295 322 41 22 13 286 281 332 317 294 278 276 290 295 270 277 310 305 257 146 216 282 290 316 357 45 32 16 16 13 19 47 58 52 40 26 12
193 190 187 187 187 187 183 6 312 266 285 289 265 204 204 261 319 328 103 158 303 311 201 329 329 334 331 313 353 58 152 289 358 309 304 325 328 260 330 20 307 305 324 282 296 311 17 36 25 3 335 328 356 358 163 228 259 308 320 289 274 266 257 243 248 278 299 290 305 8 74 327 291 301 329 12 24 4 5 20 16 16 35 53 52 31 13 2
171 176 177 174 178 191 216 316 311 301 307 298 180 169 197 269 289 27 34 301 334 348 277 357 338 296 328 345 62 14 356 39 353 305 303 334 354 7 28 102 283 300 318 294 292 280 102 45 3 25 358 334 323 289 219 205 275 327 318 287 286 281 205 150 214 261 340 310 328 1 15 359 310 298 338 7 348 348 26 25 19 21 22 23 17 6 354 347
148 155 159 157 164 182 202 274 295 317 34 116 149 159 214 284 19 55 53 96 6 345 331 351 332 310 349 16 37 348 347 343 347 356 356 3 20 10 19 31 336 337 6 334 313 12 102 57 45 43 349 314 279 283 263 153 252 323 306 297 319 321 79 90 225 115 17 325 320 340 343 322 274 283 317 340 353 64 59 43 29 20 18 4 345 343 340 330
132 142 148 146 157 169 170 183 168 105 114 130 151 201 261 6 38 36 350 8 354 342 357 323 318 337 345 344 339 344 349 335 347 31 14 4 43 23 26 27 344 353 10 345 335 343 336 319 109 114 348 9 305 305 4 90 175 338 318 335 349 341 7 356 347 10 338 296 245 292 344 312 246 272 296 347 45 72 93 112 106 354 336 351 343 333 327 323
119 135 135 126 143 145 104 103 118 122 135 136 195 278 276 52 46 11 313 346 350 297 290 246 292 309 310 319 350 344 328 306 336 12 283 7 76 45 46 39 13 0 317 325 339 342 332 310 41 74 342 357 340 343 3 325 329 345 342 3 358 353 358 338 334 329 310 294 267 261 0 312 262 283 301 97 101 130 153 155 159 225 336 346 336 327 332 344
106 127 119 102 103 103 89 99 119 131 132 45 304 308 49 61 64 225 317 349 16 305 275 285 303 297 306 32 9 353 9 307 336 347 332 13 55 28 32 32 21 6 281 314 351 356 356 326 337 31 349 311 6 40 51 287 306 309 318 15 351 34 37 312 320 323 305 307 301 298 36 285 275 311 304 141 140 166 169 152 61 16 6 354 337 343 356 353
100 101 95 85 78 80 81 98 122 125 39 321 319 44 55 70 47 3 354 326 344 332 318 333 314 299 15 67 5 27 55 320 346 9 11 27 40 10 10 13 10 8 337 340 356 11 8 298 296 34 43 7 41 115 236 309 307 281 306 46 0 127 132 249 267 272 273 292 298 291 259 260 279 311 296 135 46 31 77 34 25 11 0 1 356 2 357 340
91 84 77 62 52 53 63 98 139 134 313 304 57 57 52 84 11 2 6 323 335 329 317 325 345 346 1 349 330 2 50 206 335 2 47 60 47 27 45 16 352 10 26 6 330 0 11 289 305 344 36 55 71 184 320 8 336 293 348 0 270 170 145 209 278 273 274 276 282 297 293 292 314 324 327 3 359 359 8 8 15 9 359 4 6 360 344 332
83 77 64 37 25 18 20 83 215 289 315 29 72 73 35 78 16 348 0 345 341 288 312 341 31 11 350 345 350 345 336 318 344 349 24 57 35 9 23 50 3 11 37 42 339 20 19 288 301 329 23 14 23 36 9 347 302 334 337 302 294 173 129 131 275 289 311 289 291 315 298 298 319 318 335 355 346 342 346 343 351 13 15 10 358 348 337 332
89 87 61 22 10 1 355 6 328 307 11 66 78 90 23 36 12 358 3 341 282 251 342 12 50 60 353 354 340 332 342 359 348 350 18 35 21 359 0 30 32 14 25 37 350 7 4 296 297 25 27 297 139 57 0 295 257 169 292 297 336 50 301 292 286 296 311 290 291 307 298 296 284 260 324 343 328 329 338 338 354 18 19 4 347 339 334 332
95 124 54 7 8 28 28 12 339 335 65 68 74 93 50 59 54 31 14 325 255 282 9 13 357 45 29 3 321 325 4 11 334 345 22 10 1 30 38 8 348 357 12 26 337 327 356 320 289 329 347 328 164 62 3 307 293 338 334 324 39 142 236 273 321 279 270 277 288 304 302 293 267 258 328 323 312 331 345 341 2 19 5 351 343 338 332 329
324 142 30 356 8 40 32 35 36 34 61 63 65 70 37 66 74 77 74 358 270 253 22 358 344 358 3 5 276 332 354 325 315 343 10 5 5 33 44 30 343 333 340 7 7 323 329 286 281 307 336 343 324 225 328 280 280 327 353 304 298 322 280 297 299 177 197 276 288 304 296 280 275 295 317 303 305 339 348 343 1 6 350 345 343 336 328 326
330 109 3 350 356 357 13 43 46 32 65 64 59 59 30 24 19 50 118 39 320 143 100 76 14 8 344 340 349 334 329 309 313 346 9 27 28 21 40 33 339 327 330 0 56 349 343 299 290 306 324 325 284 220 243 248 219 204 245 251 254 45 36 333 307 270 114 222 249 276 281 279 282 288 288 291 316 340 339 347 357 346 342 340 337 332 328 332
25 100 349 349 356 354 27 59 30 15 70 62 42 73 45 231 325 339 175 149 271 218 109 101 15 8 4 354 339 344 352 324 330 1 22 40 39 27 13 349 324 304 309 342 78 45 355 265 277 280 275 289 275 239 256 279 266 242 247 217 107 111 143 211 274 291 305 276 233 209 249 274 282 259 274 305 333 330 328 344 348 337 335 331 329 330 328 328
44 105 1 355 345 306 57 70 42 29 68 110 180 124 12 9 12 331 355 32 351 301 358 42 15 22 43 27 334 335 6 354 331 13 10 16 50 34 331 344 333 294 282 343 38 15 338 219 286 289 271 282 290 271 275 305 12 327 272 206 141 137 153 186 221 284 308 275 235 229 253 271 294 320 309 318 325 318 319 332 340 333 326 323 324 324 322 320
76 117 26 13 23 91 84 79 106 79 87 162 135 87 41 43 35 20 14 22 11 345 6 7 21 16 6 29 320 313 355 20 21 52 14 335 7 248 314 358 350 349 39 48 324 344 347 318 337 323 314 321 327 324 318 324 0 315 287 164 125 116 80 63 258 66 316 235 210 212 259 270 292 317 314 313 316 314 312 315 330 329 318 314 318 318 316 311
86 86 23 22 41 66 81 77 118 116 123 126 95 52 41 78 39 353 345 18 8 324 0 347 71 4 310 327 233 286 353 70 343 24 8 327 344 201 271 359 338 13 58 352 291 317 292 284 309 313 309 313 314 316 311 313 322 306 292 312 116 161 149 159 252 220 240 246 224 218 252 272 288 299 302 306 311 310 308 312 324 318 309 308 317 322 319 310
88 55 2 11 33 51 66 25 55 100 129 116 84 22 16 55 125 235 249 10 357 308 315 293 179 145 318 347 342 318 3 86 174 29 357 329 330 202 176 14 312 74 43 319 285 271 276 276 246 223 236 254 263 274 286 303 305 290 289 295 286 198 179 182 192 210 228 275 283 254 250 268 286 292 299 306 308 304 304 314 319 315 314 315 320 325 321 310
80 81 34 11 29 38 53 31 24 57 97 96 92 22 21 48 61 222 203 164 73 58 281 302 38 40 358 353 358 342 345 346 83 55 336 287 291 262 190 180 195 174 158 228 204 161 334 282 248 224 240 251 258 273 285 294 281 274 282 287 283 239 174 177 208 226 228 335 284 265 263 275 284 290 298 302 301 300 303 315 318 318 318 318 323 327 321 310
62 125 225 80 68 26 39 21 10 49 56 61 103 78 30 48 43 22 349 282 130 75 1 59 40 31 19 348 327 329 340 343 10 6 322 275 312 320 230 228 205 174 171 188 188 129 41 274 253 180 251 262 264 270 276 279 272 268 267 271 277 267 198 192 225 238 224 214 251 267 284 286 283 288 294 294 295 301 309 315 317 317 319 325 330 324 316 312
67 105 6 20 81 90 84 309 324 50 57 55 83 59 25 50 61 77 294 319 5 23 18 30 8 3 7 349 334 348 350 349 325 307 319 313 316 314 291 302 233 189 191 182 182 135 136 257 277 225 267 278 273 260 261 262 268 275 273 268 271 269 243 225 237 241 227 231 249 265 278 278 278 282 284 284 289 304 314 317 318 323 330 333 326 317 316 328
116 125 115 77 82 81 112 292 334 54 50 35 62 37 355 47 60 90 84 25 19 11 13 16 345 336 325 300 348 71 155 162 226 246 247 307 303 282 229 273 232 235 247 173 159 198 152 289 329 320 293 295 284 261 264 267 272 282 285 282 278 276 270 255 250 244 230 243 257 263 268 272 275 278 279 282 302 325 322 320 324 333 338 331 324 325 338 353
92 106 120 111 84 10 337 342 29 60 41 22 45 317 338 49 55 45 48 38 40 31 9 350 325 317 280 208 242 195 177 186 222 241 250 250 264 264 214 210 55 342 307 244 141 179 170 292 331 346 311 295 298 320 316 305 295 288 284 281 278 276 274 265 259 243 220 240 266 274 275 279 284 287 290 303 333 332 322 325 334 341 341 340 343 351 357 355
86 80 88 100 87 19 357 358 19 60 70 16 38 52 52 81 86 65 65 53 52 53 24 304 297 302 267 258 285 259 211 238 251 271 290 275 278 290 282 281 290 282 284 286 174 169 145 315 327 346 308 288 307 328 321 315 313 297 285 292 287 274 268 272 277 266 239 230 259 280 282 287 296 305 314 328 336 329 327 337 346 347 351 357 359 355 351 348